Simultaneous Nadir Overpasses (SNOs) Predictions

Prediction of SNOs between GOES-17 and METOP-C Satellite Orbit:

Table of predicted SNOs for the next 14.0 days since TLE Epoch: 8/12/2023
Index Date Time (GOES-17) GOES-17 Lat,Lon METOP-C Lat,Lon Distance(km) Time Diff (sec)
1 08/12/2023 16:18:46 -0.00,-104.72 -0.62,-102.05 305.17 80
2 08/14/2023 04:37:48 0.00,-104.69 -0.43,-106.66 223.25 80
3 08/15/2023 04:14:31 -0.00,-104.69 0.67,-101.67 344.57 80
4 08/16/2023 16:33:27 0.00,-104.72 0.32,-106.26 174.43 80
5 08/17/2023 16:15:30 0.01,-104.72 -0.78,-101.27 393.95 80
6 08/19/2023 04:34:32 -0.01,-104.70 -0.26,-105.87 133.59 80
7 08/20/2023 04:11:14 -0.01,-104.70 0.84,-100.89 434.55 80
8 08/21/2023 16:30:10 0.01,-104.73 0.20,-105.46 84.50 80
9 08/22/2023 16:12:12 0.01,-104.73 -0.91,-100.48 483.85 80
10 08/24/2023 04:31:16 -0.01,-104.71 -0.07,-105.10 43.95 80
